Weather History for Smyrna, TN

Change the Weather History Date:

Wednesday, May 8, 2013

  Actual Average Record
Temperature  
Mean Temperature 64 °F -  
Max Temperature 79 °F 74 °F 88 °F (2007)
Min Temperature 50 °F 56 °F 50 °F (2007)
Growing Degree Days 14 (Base 50)    
Moisture  
Dew Point 54 °F    
Average Humidity 90    
Maximum Humidity 100    
Minimum Humidity 45    
Precipitation  
Precipitation 0.00 in - - ()
Sea Level Pressure  
Sea Level Pressure 30.03 in    
Wind  
Wind Speed 0 mph (NW)    
Max Wind Speed 10 mph    
Max Gust Speed -    
Visibility 5 miles    
Events Fog    
Averages and records for this station are not official NWS values.
T = Trace of Precipitation, MM = Missing Value Source: NWS Daily Summary

Daily Weather History Graph

Daily Weather History Graph

Search for Another Location

Airport:

Trip Planner

Search our weather history database for the weather conditions in past years. The results will help you decide how hot, cold, wet, or windy it might be!

Date:

Astronomy

May. 08, 2013 Rise Set
Actual Time 5:46 AM CDT 7:39 PM CDT
Civil Twilight 5:18 AM CDT 8:07 PM CDT
Nautical Twilight 4:44 AM CDT 8:41 PM CDT
Astronomical Twilight 4:07 AM CDT 9:18 PM CDT
Moon 4:51 AM CDT (5/8) 6:38 PM CDT (5/8)
Length of Visible Light 14h 49m
Length of Day
13h 53m
Waning Crescent, 2% of the Moon is Illuminated
May 8
Waning Crescent
May 9
New
May 17
First Quarter
May 24
Full
May 31
Last Quarter

Hourly Weather History & Observations

Time (CDT) Temp. Dew Point Humidity Pressure Visibility Wind Dir Wind Speed Gust Speed Precip Events Conditions
12:56 AM 54.9 °F 54.0 °F 97% 30.02 in 10.0 mi Calm Calm - N/A   Clear
1:56 AM 52.9 °F 52.9 °F 100% 30.01 in 1.2 mi Calm Calm - N/A   Clear
2:00 AM 51.8 °F 51.8 °F 100% 29.98 in 2.0 mi Calm Calm - N/A   Clear
2:20 AM 53.6 °F 53.6 °F 100% 29.98 in 8.0 mi Calm Calm - N/A   Clear
2:37 AM 53.6 °F 53.6 °F 100% 29.98 in 2.5 mi Calm Calm - N/A   Clear
2:56 AM 52.0 °F 52.0 °F 100% 30.01 in 3.0 mi Calm Calm - N/A   Clear
3:25 AM 51.8 °F 51.8 °F 100% 29.99 in 1.2 mi Calm Calm - N/A   Clear
3:28 AM 51.8 °F 51.8 °F 100% 29.99 in 0.8 mi Calm Calm - N/A   Clear
3:36 AM 51.8 °F 51.8 °F 100% 29.99 in 1.2 mi Calm Calm - N/A   Clear
3:40 AM 51.8 °F 51.8 °F 100% 29.99 in 2.0 mi Calm Calm - N/A   Clear
3:49 AM 51.8 °F 51.8 °F 100% 29.99 in 1.0 mi Calm Calm - N/A   Clear
3:56 AM 52.0 °F 52.0 °F 100% 30.01 in 0.5 mi Calm Calm - N/A Fog Fog
3:59 AM 51.8 °F 51.8 °F 100% 29.99 in 1.0 mi Calm Calm - N/A   Clear
4:10 AM 51.8 °F 51.8 °F 100% 29.99 in 0.5 mi Calm Calm - N/A Fog Fog
4:16 AM 51.8 °F 51.8 °F 100% 29.99 in 1.0 mi Calm Calm - N/A   Clear
4:18 AM 51.8 °F 51.8 °F 100% 29.99 in 1.8 mi Calm Calm - N/A   Clear
4:20 AM 51.8 °F 51.8 °F 100% 29.99 in 4.0 mi Calm Calm - N/A   Clear
4:42 AM 51.8 °F 51.8 °F 100% 29.99 in 1.5 mi Calm Calm - N/A   Clear
4:44 AM 51.8 °F 51.8 °F 100% 29.99 in 1.0 mi Calm Calm - N/A   Clear
4:56 AM 52.0 °F 52.0 °F 100% 30.02 in 2.5 mi Calm Calm - N/A   Clear
5:04 AM 51.8 °F 51.8 °F 100% 30.00 in 4.0 mi Calm Calm - N/A   Clear
5:33 AM 51.8 °F 51.8 °F 100% 30.01 in 1.8 mi Calm Calm - N/A   Clear
5:42 AM 51.8 °F 51.8 °F 100% 30.02 in 3.0 mi Calm Calm - N/A   Clear
5:46 AM 51.8 °F 51.8 °F 100% 30.02 in 1.5 mi Calm Calm - N/A   Clear
5:49 AM 50.0 °F 50.0 °F 100% 30.02 in 0.8 mi Calm Calm - N/A   Clear
5:56 AM 50.0 °F 50.0 °F 100% 30.05 in 0.5 mi Calm Calm - N/A Fog Fog
6:04 AM 51.8 °F 51.8 °F 100% 30.03 in 1.0 mi Calm Calm - N/A   Clear
6:07 AM 50.0 °F 50.0 °F 100% 30.03 in 1.5 mi Calm Calm - N/A   Clear
6:13 AM 50.0 °F 50.0 °F 100% 30.03 in 3.0 mi Calm Calm - N/A   Clear
6:28 AM 50.0 °F 50.0 °F 100% 30.04 in 2.5 mi Calm Calm - N/A   Clear
6:38 AM 51.8 °F 51.8 °F 100% 30.04 in 5.0 mi Calm Calm - N/A   Clear
6:56 AM 52.9 °F 52.9 °F 100% 30.07 in 8.0 mi Calm Calm - N/A   Clear
7:56 AM 59.0 °F 56.8 °F 93% 30.08 in 10.0 mi Calm Calm - N/A   Clear
8:56 AM 66.9 °F 59.0 °F 76% 30.08 in 10.0 mi Calm Calm - N/A   Clear
9:56 AM 70.9 °F 59.0 °F 66% 30.08 in 10.0 mi WNW 6.9 mph - N/A   Clear
10:56 AM 72.0 °F 57.9 °F 61% 30.09 in 10.0 mi Calm Calm - N/A   Scattered Clouds
11:56 AM 74.8 °F 57.9 °F 55% 30.08 in 10.0 mi Calm Calm - N/A   Scattered Clouds
12:56 PM 75.9 °F 59.0 °F 56% 30.07 in 10.0 mi WNW 6.9 mph - N/A   Scattered Clouds
1:56 PM 77.9 °F 56.8 °F 48% 30.07 in 10.0 mi NNW 6.9 mph - N/A   Partly Cloudy
2:56 PM 77.0 °F 56.8 °F 50% 30.05 in 10.0 mi North 10.4 mph - N/A   Mostly Cloudy
3:56 PM 79.9 °F 56.8 °F 45% 30.04 in 10.0 mi Calm Calm - N/A   Partly Cloudy
4:56 PM 74.8 °F 59.0 °F 58% 30.04 in 10.0 mi Calm Calm - N/A   Scattered Clouds
5:56 PM 73.9 °F 59.9 °F 61% 30.04 in 10.0 mi Calm Calm - 0.00 in   Mostly Cloudy
6:56 PM 72.0 °F 61.0 °F 68% 30.05 in 10.0 mi West 6.9 mph - N/A   Scattered Clouds
7:56 PM 66.9 °F 59.9 °F 78% 30.06 in 10.0 mi Calm Calm - N/A   Clear
8:56 PM 63.9 °F 61.0 °F 90% 30.06 in 10.0 mi Calm Calm - 0.00 in   Clear
9:56 PM 61.0 °F 59.9 °F 96% 30.08 in 10.0 mi Calm Calm - N/A   Clear
10:56 PM 59.9 °F 59.0 °F 97% 30.08 in 10.0 mi Calm Calm - 0.00 in   Clear
11:56 PM 59.9 °F 59.9 °F 100% 30.08 in 9.0 mi SE 4.6 mph - N/A   Clear